Regional Weather Roundup
Issued by NWS Kansas City/Pleasant Hill, MO

Home | Current Version | Previous Version | Text Only | Print | Product List | Glossary On
Versions: 1 2 3 4 5 6 7 8 9 10 11 12 13 14 15 16 17 18 19 20 21 22 23 24 25 26 27 28 29 30 31 32 33 34 35 36 37 38 39 40 41 42 43 44 45 46 47 48 49 50
000
ASUS43 KEAX 231711
RWREAX

WEATHER ROUNDUP FOR EASTERN KANSAS AND NORTHWEST MISSOURI
NATIONAL WEATHER SERVICE KANSAS CITY/PLEASANT HILL MO
1200 PM CDT WED APR 23 2014

KSZ040-057-103>105-MOZ028-029-037-043-231800-
...KANSAS CITY METROPOLITAN AREA...

CITY           SKY/WX    TMP DP  RH WIND       PRES   REMARKS
K.C. INTL      CLOUDY    61  38  42 SE20      29.94F
K.C. DOWNTOWN  PTSUNNY   64  37  36 SE12      29.96F
LEES SUMMIT    PTSUNNY   63  38  39 SE14G22   29.98S
OLATHE - IXD   PTSUNNY   66  39  37 SE16      29.95F
OLATHE - OJC   PTSUNNY   63  40  42 SE15      29.95F
LAWRENCE       PTSUNNY   65  39  38 SE18      29.91F

$$

MOZ001>008-011>017-020>025-030>033-038>040-044>046-053-054-231800-
...NORTHERN AND CENTRAL MISSOURI...

CITY           SKY/WX    TMP DP  RH WIND       PRES   REMARKS
ST. JOSEPH     PTSUNNY   58  40  51 SE22G31   29.91F
MOSBY          PTSUNNY   59  37  44 SE9       29.97F
WARRENSBURG    PTSUNNY  N/A N/A N/A E8        29.99F
WHITEMAN AFB   PTSUNNY   61  31  33 SE12      29.98F
CLINTON        PTSUNNY   63  39  42 SE15      29.99F HAZE
SEDALIA        LGT RAIN  60  37  42 SE14      30.01F
WARSAW         NOT AVBL
MARSHALL         N/A     63  39  42 SE15      30.02F
CHILLICOTHE      N/A     54  39  57 SE9       30.02F
MOBERLY        MOSUNNY   59  37  44 SE14      30.06F
KIRKSVILLE     PTSUNNY   54  36  50 E17       30.07F

$$

MOZ041-047>049-056>058-063>065-088>090-097-231800-
...EASTERN AND SOUTHERN MISSOURI...

CITY           SKY/WX    TMP DP  RH WIND       PRES   REMARKS
ST. LOUIS INTL MOSUNNY   61  37  41 E13       30.11F
SPIRIT OF STL  SUNNY     60  39  45 E8        30.09F
COLUMBIA       PTSUNNY   61  36  39 SE9       30.05S
JEFFERSON CITY PTSUNNY   63  34  33 SE12      30.04F
MEXICO         PTSUNNY   59  39  47 E8G17     30.07F
HANNIBAL       PTSUNNY   61  28  29 SE10      30.10F
ROLLA          MOSUNNY   64  34  32 SE8       30.03F
LEBANON        PTSUNNY   70  34  26 SE12G18   30.01F
OSAGE BEACH    PTSUNNY   64  34  32 SE8       30.04F
SPRINGFIELD    MOSUNNY   68  39  34 SE17G29   29.98F
BRANSON        PTSUNNY   66  39  37 SE10G16   30.03F
NEVADA         CLOUDY    66  43  42 SE12G18   29.96F
JOPLIN         MOSUNNY   73  44  35 S16G23    29.93F
WEST PLAINS    SUNNY     66  33  29 S9        30.06F
MALDEN         SUNNY     68  36  30 E5        30.08F

$$

IAZ060-094-KSZ022-034>040-054-083-096-NEZ052-066-093-231800-
...KANSAS...SOUTHEAST NEBRASKA AND IOWA...

CITY           SKY/WX    TMP DP  RH WIND       PRES   REMARKS
TOPEKA         PTSUNNY   68  41  37 SE18      29.88F
MANHATTAN      LGT RAIN  66  41  40 SE14G23   29.79F
EMPORIA        MOSUNNY   71  40  32 SE15G26   29.86F
CHANUTE        SUNNY     73  44  35 S18       29.90F
WICHITA        PTSUNNY   77  50  38 S26G37    29.79F
OMAHA          TSTM      50  43  77 SE28G33   29.83F
LINCOLN        CLOUDY    56  44  64 SE22      29.76F
FALLS CITY     CLOUDY    59  45  59 SE17G23   29.86F
LAMONI         CLOUDY    51  35  54 SE9G21    29.97F
DES MOINES     LGT RAIN  50  38  63 SE15G21   30.01F

$$




USA.gov is the U.S. government's official web portal to all federal, state and local government web resources and services.